This demonstration page uses our WeatherBlox Daily Observations layout. Learn more.

Left ArrowRight Arrow

31.84235, -102.49876

Hourly Observations for March 17, 2022

Temp ( °F °C ) Dew Point ( °F °C ) Humidity (%) Winds ( mph kmh ) Pressure ( in mb ) Visibility ( mi km ) Precip ( " mm )
12:53 am 00:53 Clear 63 17.2 17 -8.3 17 17 S 12 19 29.61 1003 10 16 0.00 0.00
1:53 am 01:53 Clear 62 16.7 20 -6.7 20 20 S 13 20 29.59 1002 10 16 0.00 0.00
2:53 am 02:53 Clear 63 17.2 22 -5.6 21 21 SSW 13 20 29.57 1001 10 16 0.00 0.00
3:53 am 03:53 Clear 62 16.7 24 -4.4 23 23 SSW 17 28 29.56 1001 10 16 0.00 0.00
4:53 am 04:53 Clear 61 16.1 24 -4.4 24 24 SSW 15 24 29.56 1001 10 16 0.00 0.00
5:53 am 05:53 Clear 58 14.4 21 -6.1 24 24 SW 13 20 29.55 1001 10 16 0.00 0.00
6:53 am 06:53 Clear 54 12.2 18 -7.8 24 24 SW 6 9 29.59 1002 10 16 0.00 0.00
7:53 am 07:53 Clear 54 12.2 16 -8.9 22 22 WSW 9 15 29.60 1002 10 16 0.00 0.00
8:53 am 08:53 Sunny 58 14.4 12 -11.1 16 16 WSW 13 20 29.62 1003 10 16 0.00 0.00
9:53 am 09:53 Sunny 64 17.8 17 -8.3 16 16 WSW 20 31 29.62 1003 10 16 0.00 0.00
10:53 am 10:53 Hazy 70 21.1 23 -5 17 17 WSW 28 44 29.62 1003 4 6 0.00 0.00
11:15 am 11:15 Hazy 71 21.7 23 -5 16 16 W 31 50 29.60 1002 2 3 0.00 0.00
11:25 am 11:25 Hazy 71 21.7 23 -5 16 16 W 33 54 29.60 1002 3 5 0.00 0.00
11:53 am 11:53 Hazy 71 21.7 23 -5 16 16 WNW 32 52 29.64 1004 3 4 0.00 0.00
12:02 pm 12:02 Hazy 71 21.7 23 -5 16 16 W 31 50 29.61 1003 4 6 0.00 0.00
12:53 pm 12:53 Hazy 72 22.2 21 -6.1 15 15 W 22 35 29.64 1004 6 10 0.00 0.00
1:53 pm 13:53 Mostly Sunny 73 22.8 22 -5.6 15 15 WNW 31 50 29.62 1003 10 16 0.00 0.00
2:53 pm 14:53 Sunny 73 22.8 21 -6.1 14 14 W 24 39 29.62 1003 7 11 0.00 0.00
3:53 pm 15:53 Sunny 71 21.7 25 -3.9 18 18 WNW 29 46 29.64 1004 9 14 0.00 0.00
4:53 pm 16:53 Sunny 73 22.8 24 -4.4 16 16 WNW 28 44 29.65 1004 7 11 0.00 0.00
5:53 pm 17:53 Hazy 68 20 29 -1.7 23 23 NNW 30 48 29.70 1006 4 6 0.00 0.00
6:53 pm 18:53 Hazy 65 18.3 32 0 29 29 NNW 28 44 29.78 1008 5 8 0.00 0.00
7:41 pm 19:41 Cloudy with Haze 61 16.1 32 0 34 34 N 24 39 29.83 1010 2 3 0.00 0.00
7:53 pm 19:53 Cloudy with Haze 59 15 32 0 36 36 N 31 50 29.85 1011 2 3 0.00 0.00
8:08 pm 20:08 Cloudy with Haze 57 13.9 32 0 39 39 N 25 41 29.89 1012 3 4 0.00 0.00
8:13 pm 20:13 Cloudy with Haze 57 13.9 32 0 39 39 N 30 48 29.89 1012 3 5 0.00 0.00
8:53 pm 20:53 Cloudy with Haze 54 12.2 32 0 43 43 N 20 31 29.90 1012 5 8 0.00 0.00
9:53 pm 21:53 Cloudy with Haze 48 8.9 31 -0.6 52 52 N 26 43 29.95 1014 5 8 0.00 0.00
10:44 pm 22:44 Partly Cloudy 45 7.2 30 -1.1 56 56 N 24 39 30.07 1018 8 13 0.00 0.00
10:53 pm 22:53 Mostly Clear 45 7.2 30 -1.1 56 56 N 21 33 29.99 1016 8 13 0.00 0.00
11:53 pm 23:53 Clear 43 6.1 29 -1.7 58 58 N 16 26 29.99 1016 10 16 0.00 0.00

Powered by AerisWeather